Flag for U.S.A. Weather past 2 weeks in Portland, Oregon, U.S.A.

Now
52 °F

Light rain. Overcast.


Feels Like: 50 °F
Forecast: 50 / 57 °F
Wind: 6 mph from Southeast

Location: Portland International Airport


UV Index: 0 (Low)

Visibility: 8 mi


Pressure: 30.01 "Hg

Humidity: 93%

Dew point: 50 °F

Location of PortlandLocation

Historic Weather in Portland

°F

Portland temperature yesterday

Maximum temperature yesterday: 58 °F (at 2:53 PM)
Minimum temperature yesterday: 48 °F (at 3:53 AM)
Average temperature yesterday: 53 °F

Past Weeks' High & Low Weather Summary

 TemperatureHumidityPressure
High74 °F (Apr 7, 5:53 PM)100% (Apr 7, 4:53 AM)30.31 "Hg (Apr 7, 4:53 AM)
Low40 °F (Apr 13, 6:53 AM)21% (Apr 13, 3:53 PM)29.94 "Hg (Apr 1, 10:53 PM)
Average54 °F68%30.13 "Hg
* Reported Apr 1 10:53 PM — Apr 16 10:53 PM, Portland, Weather by CustomWeather, © 2014

Note: Actual official high and low records may vary slightly from our data, if they occured in-between our weather recording intervals... More about our weather records

Advertising

Historic Weather Conditions — Data for Previous 24 hours

 ConditionsComfort  
Time TempWeatherWind HumidityBarometerVisibility
10:53 PM
Apr 16
52 °FLight rain. Overcast.5 mph93%30.02 "Hg8 mi
9:53 PM53 °FLight rain. Overcast.No wind83%30.03 "Hg8 mi
8:53 PM55 °FMore clouds than sun.No wind77%30.02 "Hg10 mi
7:53 PM55 °FOvercast.No wind74%30.03 "Hg10 mi
6:53 PM55 °FOvercast.3 mph77%30.04 "Hg10 mi
5:53 PM56 °FLight rain. Overcast.3 mph72%30.05 "Hg10 mi
4:53 PM57 °FOvercast.6 mph67%30.06 "Hg10 mi
3:53 PM58 °FMore clouds than sun.10 mph58%30.08 "Hg10 mi
2:53 PM58 °FCloudy.10 mph58%30.09 "Hg10 mi
1:53 PM56 °FMostly cloudy.8 mph67%30.11 "Hg10 mi
12:53 PM54 °FLight rain. More clouds than sun.3 mph74%30.12 "Hg10 mi
11:53 AM54 °FLight rain. More clouds than sun.10 mph72%30.13 "Hg10 mi
10:53 AM52 °FOvercast.8 mph75%30.14 "Hg10 mi
9:53 AM51 °FMostly cloudy.12 mph77%30.13 "Hg10 mi
8:53 AM50 °FOvercast.13 mph80%30.14 "Hg10 mi
7:53 AM49 °FLight rain. Low clouds.3 mph86%30.14 "Hg10 mi
6:53 AM49 °FLight rain. Mostly cloudy.6 mph86%30.14 "Hg10 mi
5:53 AM48 °FMostly cloudy.5 mph93%30.14 "Hg10 mi
4:53 AM48 °FLight rain. Mostly cloudy.6 mph93%30.14 "Hg10 mi
3:53 AM48 °FOvercast.6 mph89%30.15 "Hg10 mi
2:53 AM49 °FOvercast.7 mph86%30.14 "Hg10 mi
1:53 AM50 °FLight rain. Mostly cloudy.5 mph83%30.16 "Hg10 mi
12:53 AM51 °FLight rain. Mostly cloudy.5 mph71%30.16 "Hg10 mi
Weather by CustomWeather, © 2014

See weather overview